INMARSAT 3-F1

Last updated on Tue Oct 08 2024 00:02:37 GMT+0000 (Coordinated Universal Time)

1 23839U 96020A 24281.55991580 -.00000059 00000+0 00000+0 0 9994 2 23839 9.3029 51.9801 0008780 147.5152 190.6069 1.00003983104079
UTC large
Height (km)
Speed (km/s)
/
Latitude / Longitude
Inclination (degrees)
Orbital Period (minutes)
Azimuth
Elevation
Range (km)
Doppler Factor

Next 0 passes for location: London (51.5072 / 0.1276)

Sorry there are no passes over London.